Skip Page Navigation
NASA JPL Caltech
NASA Logo - Jet Propulsion Laboratory + View the NASA Portal
+ Center for Near-Earth Object Studies
JPL Home Earth Solar System Stars & Galaxies Technology
JPL Solar System Dynamics
BODIES ORBITS EPHEMERIDES TOOLS PHYSICAL DATA DISCOVERY FAQ SITE MAP
JPL Small-Body Database Browser
Search: [ help ]  
447097 (2004 TL119)
Classification: Main-belt Asteroid          SPK-ID: 2447097
Ephemeris | Orbit Diagram | Orbital Elements | Mission Design | Physical Parameters | Discovery Circumstances ]

[ show orbit diagram ]
Orbital Elements at Epoch 2459000.5 (2020-May-31.0) TDB
Reference: JPL 14 (heliocentric ecliptic J2000)
 Element Value Uncertainty (1-sigma)   Units 
e .2552077246140415 1.019e-07  
a 2.380226036602791 1.9595e-08 au
q 1.772773965734294 2.4235e-07 au
i 11.73910798111017 1.2838e-05 deg
node 63.26205930179156 3.6531e-05 deg
peri 303.5663134254197 4.0323e-05 deg
M 100.5344422501493 1.7269e-05 deg
tp 2458625.925592498473
(2019-May-22.42559250)
6.2012e-05 TDB
period 1341.299396330509
3.67
1.6564e-05
4.535e-08
d
yr
n .2683964527121077 3.3144e-09 deg/d
Q 2.987678107471288 2.4596e-08 au
  Orbit Determination Parameters
   # obs. used (total)      190  
   data-arc span      5582 days (15.28 yr)  
   first obs. used      2004-09-21  
   last obs. used      2020-01-03  
   planetary ephem.      DE431  
   SB-pert. ephem.      SB431-N16  
   condition code      0  
   norm. resid. RMS      .50296  
   source      ORB  
   producer      Otto Matic  
   solution date      2020-Feb-26 11:07:34  

Additional Information
 Earth MOID = .803457 au 
 Jupiter MOID = 2.53966 au 
 T_jup = 3.467 
[ show covariance matrix ]

Ephemeris | Orbit Diagram | Orbital Elements | Mission Design | Physical Parameters | Discovery Circumstances ]

Physical Parameter Table
Parameter Symbol Value Units Sigma Reference Notes
absolute magnitude H 17.5   n/a MPO450458  

447097 (2004 TL119)          Discovered 2004-Sep-21 by LONEOS at Anderson Mesa
Reference: Last Updated: 2015-10-28
Ephemeris | Orbit Diagram | Orbital Elements | Mission Design | Physical Parameters | Discovery Circumstances ]
ABOUT SSD CREDITS/AWARDS PRIVACY/COPYRIGHT GLOSSARY LINKS
FirstGov 2020-Sep-26 00:30 UT
(server date/time)  
NASA Home Page
Site Manager:   Ryan S. Park
Webmaster  Alan B. Chamberlin